{"data":{"norad_id":58676,"intl_designator":"2023-211K","name":"STARLINK-31066","alt_names":[],"object_type":"PAYLOAD","status":"ACTIVE","operator":null,"country":"US","launch_date":"2023-12-29","launch_site_code":"AFETR","launch_vehicle":null,"mission":null,"orbit_class":"UNKNOWN","rcs_meters":null,"size_class":null,"mass_kg":null,"dimensions":null,"purposes":["comms"],"wikipedia_slug":null,"has_3d_model":false,"image_url":null,"decayed_at":null,"tle_current":{"epoch":"2026-09-20T13:25:33.431808Z","epoch_age_seconds":144712,"freshness":"FRESH","line1":"1 58676U 23211K   26263.55941472 -.00000533  00000+0 -98425-5 0  9992","line2":"2 58676  43.0014 210.5375 0001075 264.2622  95.8107 15.27576686151837","mean_motion":15.27576686,"eccentricity":0.0001075,"inclination_deg":43.0014,"raan_deg":210.5375,"arg_perigee_deg":264.2622,"mean_anomaly_deg":95.8107,"bstar":-9.8425e-6,"rev_number":15183,"period_min":94.266953220573,"perigee_km":482.32144079372,"apogee_km":483.79659793788,"semimajor_km":6861.1960193658,"source":"CELESTRAK","updated_at":"2026-09-21T09:00:33.943722Z"}}}